Regional Weather Roundup
Issued by NWS

Home | Current Version | Previous Version | Text Only | Print | Product List | Glossary On
Versions: 1 2 3 4 5 6 7 8 9 10 11 12 13 14 15 16 17 18 19 20 21 22 23 24 25 26 27 28 29 30 31 32 33 34 35 36 37 38 39 40 41 42 43 44 45 46 47 48 49 50
000
ASUS43 KFSD 210810
RWRSD

WEATHER ROUNDUP FOR SOUTH DAKOTA
NATIONAL WEATHER SERVICE SIOUX FALLS SD
300 AM CDT SUN SEP 21 2014

NOTE: "FAIR" INDICATES FEW OR NO CLOUDS BELOW 12,000 FEET WITH NO
SIGNIFICANT WEATHER AND/OR OBSTRUCTIONS TO VISIBILITY.


SDZ001>005-009-010-012>017-210900-
NORTHWEST AND NORTH CENTRAL SOUTH DAKOTA

CITY           SKY/WX    TMP DP  RH WIND       PRES   REMARKS
BUFFALO          N/A     45  35  68 W7        30.22R
FAITH            N/A     46  37  71 NW9       30.25R
MOBRIDGE       CLEAR     48  43  82 NW6       30.15R
$$

SDZ012>016-024>037-041>051-057-063-072>074-210900-
SOUTHWEST AND SOUTH CENTRAL SOUTH DAKOTA

CITY           SKY/WX    TMP DP  RH WIND       PRES   REMARKS
RAPID CTY ARPT CLEAR     50  38  63 NW9       30.31R
PIERRE         CLEAR     51  43  74 NW13      30.17S
CUSTER         CLEAR     44  33  65 N6        30.38S
ELLSWORTH AFB  CLEAR     49  37  64 W6        30.30R
PHILIP         CLEAR     44  37  76 W6        30.25R
PINE RIDGE     CLEAR     40  38  93 E5        30.31R
WINNER         FAIR      52  39  61 W7        30.20R
$$

SDZ004>011-016>023-039-040-210900-
NORTHEAST SOUTH DAKOTA

CITY           SKY/WX    TMP DP  RH WIND       PRES   REMARKS
ABERDEEN       CLEAR     54  42  64 NW12      30.10R
WATERTOWN      CLEAR     54  44  69 NW15      30.06R
SISSETON         N/A     52  47  83 N9        30.03R
$$

SDZ017-020-022-023-036>040-048>070-210900-
SOUTHEAST SOUTH DAKOTA

CITY           SKY/WX    TMP DP  RH WIND       PRES   REMARKS
SIOUX FALLS    CLEAR     54  43  66 NW9       30.07S
HURON          CLEAR     51  40  65 NW10      30.10S
CHAMBERLAIN    CLEAR     51  40  64 NW9       30.17S
MITCHELL       CLEAR     54  42  64 NW10      30.12S
YANKTON        CLEAR     55  43  62 W10       30.11S
$$

ABBREVIATIONS USED IN REMARKS
   TC - TEMPERATURE IN CELSIUS
  WCI - WIND CHILL INDEX
   HX - HEAT INDEX
  VSB - VISIBILITY




USA.gov is the U.S. government's official web portal to all federal, state and local government web resources and services.